DW7857 Weather Reports


Display with metric or nautical units.
time (UTC)temp
F
wind
direction
speed
MPH
gust
MPH
rain 1hr
in
rain 24hr
in
rain mn
in
humidity
%
barometer
mb
20260510204503 48 89 2.0 3.0 0.00 0.00 0.00 70 1012.9
20260510203603 48 58 2.0 2.0 0.00 0.00 0.00 70 1012.8
20260510202703 49 53 2.0 2.0 0.00 0.00 0.00 70 1012.8
20260510201803 49 66 2.0 2.0 0.00 0.00 0.00 69 1012.8
20260510200903 50 97 2.0 4.0 0.00 0.00 0.00 68 1012.9
20260510200003 51 68 3.0 4.0 0.00 0.00 0.00 66 1012.8
20260510195403 51 47 2.0 3.0 0.00 0.00 0.00 65 1012.7
20260510194713 51 53 3.0 4.0 0.00 0.00 0.00 64 1012.7
20260510193603 52 22 4.0 5.0 0.00 0.00 0.00 63 1012.8
20260510192703 53 55 4.0 6.0 0.00 0.00 0.00 62 1012.6
20260510191803 53 78 4.0 6.0 0.00 0.00 0.00 62 1012.8
20260510190903 54 62 6.0 8.0 0.00 0.00 0.00 61 1012.4
20260510190003 55 75 6.0 7.0 0.00 0.00 0.00 57 1012.4
20260510185403 55 44 7.0 9.0 0.00 0.00 0.00 56 1012.4
20260510184504 55 106 6.0 8.0 0.00 0.00 0.00 55 1012.4
20260510183603 55 47 7.0 11.0 0.00 0.00 0.00 55 1012.5
20260510182913 55 34 9.0 12.0 0.00 0.00 0.00 54 1012.7
20260510181803 56 60 9.0 11.0 0.00 0.00 0.00 53 1012.7
20260510180903 56 32 10.0 14.0 0.00 0.00 0.00 53 1012.6
20260510180213 56 58 10.0 13.0 0.00 0.00 0.00 53 1012.8
20260510175403 57 65 9.0 12.0 0.00 0.00 0.00 54 1012.7
20260510174503 57 48 10.0 12.0 0.00 0.00 0.00 54 1012.9
20260510173603 57 22 8.0 11.0 0.00 0.00 0.00 55 1012.9
20260510172703 57 44 9.0 14.0 0.00 0.00 0.00 54 1013.1
20260510171803 57 50 10.0 14.0 0.00 0.00 0.00 54 1013.2
20260510170903 57 98 12.0 15.0 0.00 0.00 0.00 54 1013.2
20260510170003 57 55 9.0 11.0 0.00 0.00 0.00 55 1013.2
20260510165403 56 36 9.0 12.0 0.00 0.00 0.00 55 1013.1
20260510164503 56 88 9.0 12.0 0.00 0.00 0.00 57 1013.3
20260510163813 56 41 10.0 14.0 0.00 0.00 0.00 58 1013.4
20260510162914 56 85 11.0 15.0 0.00 0.00 0.00 58 1013.2
20260510161803 56 65 9.0 11.0 0.00 0.00 0.00 60 1013.2
20260510161113 56 67 9.0 11.0 0.00 0.00 0.00 60 1013.7
20260510160003 57 76 7.0 11.0 0.00 0.00 0.00 60 1013.4
20260510155403 56 89 8.0 11.0 0.00 0.00 0.00 61 1013.5
20260510154503 56 84 8.0 10.0 0.00 0.00 0.00 60 1013.6
20260510153603 56 81 8.0 11.0 0.00 0.00 0.00 60 1013.7
20260510152914 57 57 8.0 11.0 0.00 0.00 0.00 60 1013.9
20260510151803 57 61 9.0 11.0 0.00 0.00 0.00 60 1014.0
20260510150903 57 6 8.0 11.0 0.00 0.00 0.00 60 1014.1
20260510150003 56 54 10.0 13.0 0.00 0.00 0.00 60 1014.3
20260510145403 57 76 10.0 13.0 0.00 0.00 0.00 60 1014.1
20260510144503 57 93 8.0 15.0 0.00 0.00 0.00 60 1014.3
20260510143812 57 78 9.0 12.0 0.00 0.00 0.00 60 1014.1
20260510142703 58 55 9.0 15.0 0.00 0.00 0.00 57 1014.3
20260510141803 59 58 9.0 11.0 0.00 0.00 0.00 55 1014.3
20260510140903 59 60 12.0 15.0 0.00 0.00 0.00 57 1014.5
20260510140003 58 19 11.0 15.0 0.00 0.00 0.00 58 1014.5
20260510135403 58 25 11.0 16.0 0.00 0.00 0.00 57 1014.7
20260510134503 59 79 10.0 12.0 0.00 0.00 0.00 55 1014.5
20260510133603 60 52 10.0 17.0 0.00 0.00 0.00 55 1014.5
20260510132703 60 52 11.0 15.0 0.00 0.00 0.00 54 1014.4
20260510131803 61 61 9.0 12.0 0.00 0.00 0.00 53 1014.5
20260510130903 61 64 11.0 15.0 0.00 0.00 0.00 53 1014.6
20260510130003 62 52 9.0 16.0 0.00 0.00 0.00 53 1014.5
20260510125403 62 43 9.0 13.0 0.00 0.00 0.00 55 1014.4
20260510124503 60 26 11.0 16.0 0.00 0.00 0.00 55 1014.6
20260510123603 61 37 11.0 14.0 0.00 0.00 0.00 54 1014.6
20260510122703 62 33 11.0 14.0 0.00 0.00 0.00 53 1014.6
20260510121803 61 24 12.0 20.0 0.00 0.00 0.00 52 1014.9
20260510121114 62 48 8.0 12.0 0.00 0.00 0.00 53 1014.9
20260510120003 61 42 10.0 12.0 0.00 0.00 0.00 54 1014.8
20260510115403 60 57 9.0 12.0 0.00 0.00 0.00 56 1015.1
20260510114714 60 45 10.0 15.0 0.00 0.00 0.00 54 1014.8
20260510113813 61 92 11.0 16.0 0.00 0.00 0.00 56 1015.0
20260510112703 60 26 10.0 15.0 0.00 0.00 0.00 55 1015.0
20260510111803 59 48 10.0 15.0 0.00 0.00 0.00 55 1015.3
20260510110903 60 46 10.0 13.0 0.00 0.00 0.00 57 1015.2
20260510110003 61 64 9.0 14.0 0.00 0.00 0.00 56 1015.2
20260510105403 61 62 10.0 17.0 0.00 0.00 0.00 56 1015.1
20260510104714 60 60 10.0 17.0 0.00 0.00 0.00 55 1015.1
20260510103603 60 94 12.0 17.0 0.00 0.00 0.00 54 1015.4
20260510102914 60 78 11.0 15.0 0.00 0.00 0.00 56 1015.4
20260510101803 60 39 11.0 15.0 0.00 0.00 0.00 57 1015.5
20260510100903 59 42 12.0 19.0 0.00 0.00 0.00 58 1015.7
20260510100003 59 67 10.0 12.0 0.00 0.00 0.00 59 1015.5
20260510095403 58 49 10.0 14.0 0.00 0.00 0.00 60 1015.6
20260510094713 57 48 12.0 18.0 0.00 0.00 0.00 60 1015.7
20260510093603 57 41 11.0 15.0 0.00 0.00 0.00 60 1015.7
20260510092703 58 67 10.0 15.0 0.00 0.00 0.00 60 1015.7
20260510091803 57 80 13.0 18.0 0.00 0.00 0.00 61 1015.6
20260510090903 56 71 13.0 18.0 0.00 0.00 0.00 61 1015.8
20260510090214 56 58 13.0 18.0 0.00 0.00 0.00 61 1016.1
20260510085403 57 73 10.0 12.0 0.00 0.00 0.00 63 1015.8
20260510084503 55 52 12.0 18.0 0.00 0.00 0.00 63 1015.9
20260510083603 55 65 13.0 18.0 0.00 0.00 0.00 62 1015.8
20260510082703 55 58 11.0 18.0 0.00 0.00 0.00 62 1016.0
20260510082013 56 87 10.0 18.0 0.00 0.00 0.00 63 1016.0
20260510081114 55 80 10.0 16.0 0.00 0.00 0.00 65 1016.1
20260510080004 53 86 12.0 15.0 0.00 0.00 0.00 70 1016.0
20260510075403 53 66 12.0 15.0 0.00 0.00 0.00 69 1016.0
20260510074503 54 80 8.0 13.0 0.00 0.00 0.00 70 1016.3
20260510073603 54 40 9.0 14.0 0.00 0.00 0.00 71 1016.0
20260510072913 53 43 10.0 14.0 0.00 0.00 0.00 71 1016.1
20260510072012 53 58 10.0 14.0 0.00 0.00 0.00 72 1016.0
20260510071114 52 51 8.0 15.0 0.00 0.00 0.00 73 1016.0
20260510070003 52 104 8.0 11.0 0.00 0.00 0.00 75 1015.8
20260510065612 51 73 9.0 11.0 0.00 0.00 0.00 75 1015.9
20260510064503 50 97 11.0 15.0 0.00 0.00 0.00 76 1015.7
20260510063603 50 38 10.0 15.0 0.00 0.00 0.00 78 1015.5
20260510062913 49 46 10.0 13.0 0.00 0.00 0.00 79 1015.5
20260510061803 49 46 8.0 12.0 0.00 0.00 0.00 80 1015.6
20260510060903 48 81 8.0 15.0 0.00 0.00 0.00 81 1015.4
20260510060003 48 41 7.0 10.0 0.00 0.00 0.00 82 1015.3
20260510055403 47 66 6.0 8.0 0.00 0.00 0.00 82 1015.7
20260510054503 47 33 7.0 9.0 0.00 0.00 0.00 82 1015.4
20260510053603 47 13 7.0 10.0 0.00 0.00 0.00 82 1015.6
20260510052912 47 47 7.0 8.0 0.00 0.00 0.00 82 1015.7
20260510051803 47 45 6.0 7.0 0.00 0.00 0.00 82 1015.5
20260510050903 46 51 6.0 7.0 0.00 0.00 0.00 81 1015.7
20260510050004 46 60 6.0 8.0 0.00 0.00 0.00 80 1015.7
20260510045614 46 51 5.0 8.0 0.00 0.00 0.00 80 1015.6
20260510044713 47 16 6.0 8.0 0.00 0.00 0.00 80 1015.8
20260510043603 47 67 6.0 7.0 0.00 0.00 0.00 79 1015.8
20260510042703 47 52 7.0 10.0 0.00 0.00 0.00 78 1015.7
20260510041804 47 72 8.0 11.0 0.00 0.00 0.00 76 1015.9
20260510040903 47 29 7.0 11.0 0.00 0.00 0.00 74 1015.7
20260510040003 47 71 7.0 12.0 0.00 0.00 0.00 72 1015.7
20260510035403 47 71 7.0 12.0 0.00 0.00 0.00 72 1015.7
20260510034503 48 40 7.0 8.0 0.00 0.00 0.00 71 1015.6
20260510033603 48 38 6.0 7.0 0.00 0.00 0.00 70 1015.9
20260510032913 48 83 6.0 9.0 0.00 0.00 0.00 69 1016.0
20260510031803 49 34 8.0 10.0 0.00 0.00 0.00 68 1015.9
20260510030903 49 27 6.0 8.0 0.00 0.00 0.00 67 1015.8
20260510030003 50 43 6.0 8.0 0.00 0.00 0.00 65 1015.9
20260510025403 50 35 7.0 11.0 0.00 0.00 0.00 65 1015.9
20260510024712 50 50 7.0 11.0 0.00 0.00 0.00 64 1015.9
20260510023603 51 33 7.0 9.0 0.00 0.00 0.00 63 1015.9
20260510022703 51 78 8.0 11.0 0.00 0.00 0.00 62 1015.9
20260510022013 51 75 7.0 9.0 0.00 0.00 0.00 62 1015.8
20260510020903 51 61 6.0 11.0 0.00 0.00 0.00 63 1015.9
20260510020003 51 58 5.0 7.0 0.00 0.00 0.00 65 1015.8
20260510015403 51 54 6.0 9.0 0.00 0.00 0.00 66 1015.7
20260510014714 51 85 5.0 6.0 0.00 0.00 0.00 69 1015.7
20260510013814 52 51 4.0 6.0 0.00 0.00 0.00 70 1015.6
20260510012703 52 73 4.0 6.0 0.00 0.00 0.00 71 1015.7
20260510012014 52 58 4.0 5.0 0.00 0.00 0.00 72 1015.8
20260510010903 52 57 3.0 4.0 0.00 0.00 0.00 74 1015.7
20260510010003 53 42 4.0 4.0 0.00 0.00 0.00 75 1015.8
20260510005403 53 53 3.0 4.0 0.00 0.00 0.00 75 1015.7
20260510004503 53 93 3.0 4.0 0.00 0.00 0.00 76 1015.7
20260510003603 53 56 2.0 4.0 0.00 0.00 0.00 76 1015.7
20260510002703 53 50 2.0 4.0 0.00 0.00 0.00 77 1015.9
20260510001803 54 39 3.0 4.0 0.00 0.00 0.00 77 1015.9
20260510000903 54 71 3.0 4.0 0.00 0.00 0.00 77 1015.9
20260510000004 54 34 4.0 5.0 0.00 0.00 0.00 77 1015.8
20260509235403 54 78 3.0 4.0 0.00 0.00 0.00 77 1015.9
20260509234713 54 71 3.0 4.0 0.00 0.00 0.00 77 1015.8
20260509233603 54 74 3.0 4.0 0.00 0.00 0.00 75 1015.9
20260509232703 55 68 3.0 4.0 0.00 0.00 0.00 75 1015.5
20260509231803 55 58 3.0 4.0 0.00 0.00 0.00 76 1015.5
20260509230903 55 57 3.0 4.0 0.00 0.00 0.00 77 1015.6
20260509230004 55 60 3.0 4.0 0.00 0.00 0.00 76 1015.5
20260509225403 55 67 3.0 4.0 0.00 0.00 0.00 76 1015.4
20260509224503 55 81 4.0 5.0 0.00 0.00 0.00 76 1015.4
20260509223603 55 78 3.0 4.0 0.00 0.00 0.00 75 1015.5
20260509222703 55 27 4.0 6.0 0.00 0.00 0.00 75 1015.4
20260509221803 56 354 5.0 8.0 0.00 0.00 0.00 74 1015.4
20260509220903 56 54 4.0 5.0 0.00 0.00 0.00 73 1015.6
20260509220003 56 67 4.0 5.0 0.00 0.00 0.00 72 1015.7
20260509215403 56 31 4.0 5.0 0.00 0.00 0.00 72 1015.6
20260509214503 57 23 3.0 4.0 0.00 0.00 0.00 71 1015.5
20260509213603 57 78 4.0 6.0 0.00 0.00 0.00 70 1015.8
20260509212703 57 29 4.0 6.0 0.00 0.00 0.00 67 1015.4
20260509211803 57 17 3.0 4.0 0.00 0.00 0.00 64 1015.2
20260509211114 58 78 5.0 8.0 0.00 0.00 0.00 63 1015.2
20260509210004 58 79 3.0 5.0 0.00 0.00 0.00 62 1015.0
20260509205403 58 64 2.0 5.0 0.00 0.00 0.00 62 1015.1